www.pogodaiklimat.ru

Погода и климат >> Архив погоды >> Россия >> Ямало-Ненецкий АО >> Сеяха


ПОГОДА в Сеяхе

  • Прогноз погоды в Сеяхе
  • Монитор погоды в Сеяхе
  • Климат города

АРХИВ ПОГОДЫ в Сеяхе

Время (UTC), дата Ветер
(напр.,м/с)
 
Видим.   Явления Облачность Т
(С)
Тd
(С)
f
(%)
Тe
(С)
Тes
(С)
Комфортность P
(гПа)
Po
(гПа)
Тmin
(С)
Tmax
(С)
R
(мм)
R24
(мм)
S
(см)
00 14.09 В 11-16
{18}
20 км {ливн. осадки} 9/9 330 м
[Cb cap]
+2.6 +0.7 87 -5 -5 995.6 993.4
03 14.09 В 11-15
{17}
4000 м слабый ливневой дождь 9/9 330 м
[Cb cap]
+2.6 +0.8 88 -5 -5 995.8 993.5 +2.4 3
06 14.09 В 11-15
{17}
4000 м слабый ливневой дождь 9/9 240 м
[Cb cap]
+3.0 +1.0 87 -5 -5 996.8 994.5
09 14.09 В 9-15
{16}
20 км в посл. час ливневой дождь 9/9 540 м
[Cb cap]
+4.1 +1.5 83 -2 -2 998.5 996.3
12 14.09 В 11-15
{16}
4000 м слабый ливневой дождь 9/9 500 м
[Cb cap]
+4.1 +1.5 83 -3 -3 1000.7 998.5
15 14.09 В 9-14
{17}
4000 м слабый ливневой дождь 9/9 300 м
[Cb cap]
+4.0 +1.9 86 -3 -3 1002.7 1000.5 +4.1 4
18 14.09 В 7-12
{15}
4000 м слабый ливневой дождь 9/9 270 м
[Cb cap]
+4.1 +1.7 84 -2 -2 1004.2 1002.0
21 14.09 В 8-12
{14}
20 км в посл. час ливневой дождь 9/9 330 м
[Cb cap]
+5.1 +1.1 75 -1 -1 1006.1 1003.8
00 15.09 В 7
{11}
20 км {ливн. осадки} 9/9 330 м
[Cb cap]
+5.2 +1.0 74 -0 -0 1007.8 1005.6
03 15.09 В 3 20 км 9/9 600 м
[Sc]
+5.2 +1.6 78 +2 +2 1009.6 1007.3 +3.9 0.0
06 15.09 СВ 5 20 км 9/8 270 м
[Sc Ac trans]
+6.2 +2.8 79 +2 +2 1010.8 1008.6
09 15.09 В 4 20 км 3/0
[Ac trans]
+7.8 +1.7 65 +5 +6 1012.3 1010.1
12 15.09 СВ 3 20 км 3/0
[Ci fib]
+7.2 +2.5 72 +4 +5 1013.6 1011.4
15 15.09 В 3 20 км 3/0
[Ci fib]
+5.4 +2.9 84 +2 +2 1014.8 1012.6 +8.0
18 15.09 В 3 20 км ясно +4.7 +1.8 81 +1 +1 1015.5 1013.3
21 15.09 СЗ 1 20 км ясно +3.2 +2.5 95 +2 +2 1016.2 1013.9
00 16.09 СЗ 2 500 м туман ?/? +1.0 +0.5 96 -3 -3 1016.7 1014.4
03 16.09 З 2 4000 м дымка {туман} 6/0
[Ci fib]
-1.1 -1.4 98 -5 -5 1017.4 1015.1 -1.6
06 16.09 З 2 20 км {туман} 6/0
[Ci fib]
+4.8 +4.3 97 +2 +4 1017.7 1015.4
09 16.09 З 2 20 км 6/0
[Ci fib]
+8.4 +1.3 61 +7 +9 1018.0 1015.8
12 16.09 СЗ 1 20 км 8/0
[Ac trans Ci fib]
+8.4 +0.1 56 +8 +8 1018.2 1016.0
15 16.09 ЮЗ 2 20 км 9/0
[Ac trans]
+4.8 +0.1 72 +2 +2 1018.5 1016.3 +8.8
18 16.09 ЮЗ 2 20 км 8/0
[Ac trans]
+4.1 +0.7 78 +1 +1 1018.3 1016.0
21 16.09 ЮЗ 3 20 км 9/0
[Ac trans]
+2.5 +1.3 92 -2 -2 1018.5 1016.2
00 17.09 ЮЗ 3 20 км 9/0
[Ac trans]
+3.3 +2.3 93 -1 -1 1017.9 1015.6
03 17.09 ЮЗ 4 20 км 9/9 960 м
[Sc]
+4.6 +3.3 91 0 0 1017.4 1015.1 +1.8
06 17.09 ЮЗ 6 20 км 8/4 300 м
[Sc Ac trans]
+7.0 +3.7 79 +3 +3 1016.8 1014.6
09 17.09 З 7
{10}
20 км 8/4 600 м
[Sc Ac trans]
+10.0 +3.2 63 +7 +7 1016.6 1014.4
12 17.09 Ю 3 20 км 4/3 600 м
[Sc Ac trans Cc]
+9.2 +2.7 64 +7 +7 1016.0 1013.8
15 17.09 Ю 4 20 км 3/0
[Ci fib]
+4.0 +2.9 93 -1 -1 1014.9 1012.7 +10.4
18 17.09 Ю 5 20 км 9/0
[Ac trans]
+6.9 +5.3 90 +3 +3 1012.9 1010.6
21 17.09 Ю 6 4000 м слабый ливневой дождь 9/9 570 м
[Cb cap]
+6.4 +4.2 86 +2 +2 1011.2 1008.9
00 18.09 Ю 9-13
{13}
20 км {ливн. осадки} 9/9 500 м
[Cb cap]
+6.6 +4.8 88 +1 +1 1008.7 1006.5
03 18.09 ЮВ 10-15
{16}
4000 м слабый ливневой дождь 9/9 300 м
[Cb cap]
+6.4 +5.0 91 0 0 1006.5 1004.3 +4.0 0.8
06 18.09 ЮВ 11-16
{16}
4000 м слабый ливневой дождь 9/9 270 м
[Cb cap]
+6.8 +5.2 90 +1 +1 1003.6 1001.4
09 18.09 ЮВ 12-17
{18}
4000 м слабый ливневой дождь 9/9 330 м
[Cb cap]
+6.8 +5.4 91 +1 +1 1000.2 998.0
12 18.09 Ю 10-15
{18}
4000 м слабый ливневой дождь 9/9 180 м
[Cb cap]
+6.8 +6.0 95 +1 +1 997.6 995.4
15 18.09 ЮЗ 4
{13}
4000 м слабый ливневой дождь 9/9 240 м
[Cb cap]
+6.5 +5.8 95 +3 +3 997.4 995.2 +6.9 6
18 18.09 З 9-12
{15}
20 км {ливн. осадки} 9/9 270 м
[Cb cap]
+6.6 +5.5 93 +1 +1 1000.9 998.7
21 18.09 З 9-12
{12}
20 км {ливн. осадки} 9/9 330 м
[Cb cap]
+6.4 +5.2 92 +1 +1 1003.8 1001.6
00 19.09 ЮЗ 4 20 км {ливн. осадки} 9/9 420 м
[Cb cap]
+5.6 +4.6 93 +1 +1 1005.7 1003.5
03 19.09 ЮЗ 5 20 км 6/4 600 м
[Sc Ac trans]
+6.1 +4.6 90 +2 +2 1007.5 1005.3 +5.6 0.9
06 19.09 ЮЗ 4 20 км 4/4 270 м
[Sc]
+9.4 +4.8 73 +7 +8 1008.3 1006.2
09 19.09 Ю 5 20 км 6/1 600 м
[Cu hum Ci fib]
+10.2 +6.1 76 +7 +8 1008.4 1006.2
12 19.09 Ю 6-11
{11}
20 км 8/3 600 м
[Sc Cs]
+7.8 +6.0 88 +4 +4 1007.9 1005.7
15 19.09 Ю 5
{11}
20 км 9/0
[As op]
+7.1 +6.2 94 +3 +3 1007.8 1005.6 +11.2
18 19.09 Ю 6 20 км 8/0
[Ac trans]
+7.4 +6.1 91 +3 +3 1006.4 1004.2
21 19.09 ЮВ 6 4000 м слабый дождь 10/0 210 м
[As op]
+7.5 +6.9 96 +3 +3 1004.5 1002.3
00 20.09 Ю 5
{11}
2000 м дымка {дождь} 10/10 210 м
[St]
+7.2 +6.7 97 +3 +3 1002.9 1000.7
03 20.09 ЮЗ 4 500 м туман {дождь} ?/? +7.4 +7.0 97 +4 +4 1002.2 1000.0 +6.9 1
06 20.09 ЮЗ 5 20 км {дождь, туман} 8/4 240 м
[Sc Ac trans]
+7.7 +7.0 95 +4 +4 1002.4 1000.2
09 20.09 З 6
{11}
20 км 4/3 600 м
[Cu med, cong Ci fib]
+9.9 +6.1 77 +6 +7 1002.9 1000.7
12 20.09 ЮЗ 4 20 км 6/4 600 м
[Cu med, cong Ac trans]
+9.7 +4.9 72 +7 +7 1003.9 1001.7
15 20.09 ЮЗ 5 20 км 8/4 600 м
[Sc Ac trans]
+7.5 +4.5 81 +4 +4 1005.1 1002.9 +10.7
18 20.09 ЮЗ 5 20 км 6/0
[Ac trans]
+5.5 +4.1 91 +1 +1 1005.7 1003.5

 

Местоположение метеостанции Сеяха (Ямало-Ненецкий АО, Россия): широта 70.17 долгота 72.52 высота над уровнем моря 18 м.

В архиве по умолчанию представлена погода в Сеяхе за последнюю неделю. Архивные данные за месяц целиком и за предыдущие месяцы, начиная с января 2011 года, Вы можете получить, выбрав интересующий диапазон дат из раскрывающегося списка и нажав кнопку "Ввод!".


*Определитесь, кто Вы:
робот инопланетянин человек

Внимание! Время в таблицах - всемирное. Для получения местного времени необходимо прибавить поправку, которая в Сеяхе равна 5 ч.

Смотрите также архив погоды в соседних городах и на ближайших метеорологических станциях:

Погода в Тамбее (Ямало-Ненецкий АО, Россия) (148 км)
Погода в Антипаюте (Ямало-Ненецкий АО, Россия) (207 км)
Погода в Марресаля (Ямало-Ненецкий АО, Россия) (224 км)
Погода в Гыде (Ямало-Ненецкий АО, Россия) (234 км)
Погода в Новом Порте (Ямало-Ненецкий АО, Россия) (277 км)
Погода в Усть-Каре (Ненецкий АО, Россия) (310 км)
Погода в Имени Попова (Ямало-Ненецкий АО, Россия) (362 км)
Погода в Тазовском (Ямало-Ненецкий АО, Россия) (390 км)
Погода в Ныде (Ямало-Ненецкий АО, Россия) (394 км)
Погода в Карауле (Красноярский край, Россия) (402 км)

Пояснения к столбцам:

Ветер - указаны скорость ветра в м/с - средняя за 10 мин, порывы в срок и между сроками (в фигурных скобках) и направление, откуда дует ветер: С - северный, СВ - северо-восточный, В - восточный, ЮВ - юго-восточный, Ю - южный, ЮЗ - юго-западный, З - западный, СЗ - северо-западный.
Видимость - горизонтальная дальность видимости в метрах или километрах. При видимости от 1 до 10 км при отсутствии осадков обычно наблюдается дымка, при ухудшении видимости до 1 км и менее - туман. В сухую погоду видимость может ухудшаться дымом, пылью или мглою.
Явления - указаны атмосферные явления, наблюдавшиеся в срок или в последний час перед сроком; фигурными скобками обозначены явления, наблюдавшиеся между сроками (за 1-3 часа до срока); квадратными скобками обозначены град или гололедные отложения с указанием их диаметра в мм.
Облачность - указаны через наклонную черту общая и нижняя облачность в баллах и высота нижней границы облаков в метрах; квадратными скобками обозначены формы облаков: Ci - перистые, Cs - перисто-слоистые, Cc - перисто-кучевые, Ac - высококучевые, As - высокослоистые, Sc - слоисто-кучевые, Ns - слоисто-дождевые, Cu - кучевые, Cb - кучево-дождевые. Подробнее классификацию облаков см. в Атласе облаков (PDF).
T - Температура воздуха - температура, измеренная на высоте 2 м над землей.
Td - Температура точки росы - температура, при понижении до которой содержащийся в воздухе водяной пар достигнет насыщения.
f - Относительная влажность воздуха - влажноcть воздуха, измеренная на высоте 2 м над землей.
Te - Эффективная температура - температура, которую ощущает одетый по сезону человек в тени. Характеристика душности погоды. При расчете учитывается влияние влажности воздуха и скорости ветра на теплоощущения человека.
Tes - Эффективная температура на солнце - температура, которую ощущает человек, с поправкой на солнечный нагрев. Характеристика знойности погоды. Зависит от высоты солнца над горизонтом, облачности и скорости ветра. Ночью, в пасмурную погоду, а также при ветре 12 м/с и более поправка равна нулю.
P - Атмосферное давление - приведенное к уровню моря атмосферное давление.
Po - Атмосферное давление - измеренное на уровне метеостанции атмосферное давление.
Tmin - Минимальная температура - минимум температуры воздуха на высоте 2 м над землей.
Tmax - Максимальная температура - максимум температуры воздуха на высоте 2 м над землей.
R - Количество осадков - Количество выпавших осадков за период времени, мм. При наведении курсора мыши на число - период времени, за который выпало указанное количество осадков.
R24 - Количество осадков - Количество выпавших осадков за 24 часа, мм.
S - Снежный покров - Высота снежного покрова, см. При наведении курсора мыши на число - состояние снежного покрова и степень покрытия местности в баллах.